Regional Weather Roundup
Issued by NWS

Home | Current Version | Previous Version | Graphics & Text | Print | Product List | Glossary On
Versions: 1 2 3 4 5 6 7 8 9 10 11 12 13 14 15 16 17 18 19 20 21 22 23 24 25 26 27 28 29 30 31 32 33 34 35 36 37 38 39 40 41 42 43 44 45 46 47 48 49 50
000
ASUS45 KCYS 010110
RWRWY

WYOMING REGIONAL WEATHER ROUNDUP
NATIONAL WEATHER SERVICE CHEYENNE WY
700 PM MDT TUE SEP 30 2014

NOTE:  "FAIR" INDICATES FEW OR NO CLOUDS BELOW 12,000 FEET
WITH NO SIGNIFICANT WEATHER AND/OR OBSTRUCTIONS TO VISIBILITY.

WYZ001-010200-
YELLOWSTONE NATIONAL PARK

CITY           SKY/WX    TMP DP  RH WIND       PRES   REMARKS
LK YELLOWSTONE   N/A     39  36  89 VRB3      29.92R
W YELLOWSTONE  NOT AVBL

$$
WYZ002>013-054>058-071-098>099-010200-
NORTHERN WYOMING

CITY           SKY/WX    TMP DP  RH WIND       PRES   REMARKS
JACKSON        MOCLDY    45  43  93 S10       29.87F
CODY           CLOUDY    54  45  71 NE3       29.77R
GREYBULL       CLOUDY    56  46  69 CALM      29.74R
WORLAND        PTCLDY    54  44  69 NE5       29.73R
SHERIDAN       CLOUDY    55  44  66 NW12      29.72R
BUFFALO        CLOUDY    53  41  63 N13       29.75R
GILLETTE       LGT RAIN  53  44  71 NW14      29.71R
HULETT         CLOUDY    52  46  82 W9        29.69
NEWCASTLE      CLOUDY    54  45  71 NW8       29.71

$$
WYZ014>020-022>026-101>103-010200-
CENTRAL WYOMING

CITY           SKY/WX    TMP DP  RH WIND       PRES   REMARKS
BIG PINEY      MOCLDY    46  33  60 NW13      29.93S
PINEDALE       MOCLDY    45  39  81 MISG      29.94R
DUBOIS         DRIZZLE   41  36  81 NW10      29.87S
LANDER         MOCLDY    56  39  53 SW10      29.77R
RIVERTON       MOCLDY    57  36  45 NW13      29.78R
CASPER         MOCLDY    56  35  45 W8        29.76R
DOUGLAS        CLOUDY    56  42  59 W6        29.76R

$$
WYZ021-027>030-104>119-010200-
SOUTHERN WYOMING

CITY           SKY/WX    TMP DP  RH WIND       PRES   REMARKS
EVANSTON       LGT RAIN  41  38  89 W13       29.99F
KEMMERER       CLOUDY    37  37 100 SW7       29.99S WCI  32
FORT BRIDGER   CLOUDY    42  40  95 SW5       30.03R
ROCK SPRINGS   MOCLDY    48  38  68 W15       29.94R
DIXON          CLOUDY    46  43  90 SE3       29.99R
RAWLINS        CLOUDY    46  42  86 W20G26    29.90R
SARATOGA       MOCLDY    43  39  87 SW12      29.94F
LARAMIE        CLOUDY    46  36  68 SW12      29.90R
CHEYENNE       CLOUDY    54  36  50 W18       29.86R
TORRINGTON     CLOUDY    58  44  60 W10       29.73R
PINE BLUFFS    MOCLDY    54  41  62 W5        29.83R

$$


USA.gov is the U.S. government's official web portal to all federal, state and local government web resources and services.